TimeHST,TemperatureF,Dew PointF,Humidity,Sea Level PressureIn,VisibilityMPH,Wind Direction,Wind SpeedMPH,Gust SpeedMPH,PrecipitationIn,Events,Conditions,WindDirDegrees,DateUTC
12:53 AM,70.0,66.0,87,30.05,10.0,NNW,4.6,-,0.00,,Overcast,340,2013-01-24 10:53:00
1:41 AM,69.8,66.2,88,30.05,10.0,Calm,Calm,-,0.01,,Overcast,0,2013-01-24 11:41:00
1:53 AM,69.1,66.9,93,30.04,4.0,Calm,Calm,-,0.01,Rain,Light Rain,0,2013-01-24 11:53:00
2:53 AM,69.1,66.9,93,30.03,10.0,NNW,5.8,-,0.04,,Overcast,340,2013-01-24 12:53:00
3:53 AM,69.1,66.9,93,30.02,10.0,NNW,4.6,-,N/A,,Mostly Cloudy,330,2013-01-24 13:53:00
4:53 AM,69.1,66.0,90,30.02,10.0,NNW,3.5,-,N/A,,Mostly Cloudy,340,2013-01-24 14:53:00
5:53 AM,69.1,66.0,90,30.03,10.0,Calm,Calm,-,N/A,,Overcast,0,2013-01-24 15:53:00
6:53 AM,69.1,64.9,87,30.04,10.0,North,3.5,-,0.00,,Overcast,350,2013-01-24 16:53:00
7:53 AM,70.0,64.9,84,30.07,10.0,WNW,4.6,-,N/A,,Mostly Cloudy,290,2013-01-24 17:53:00
8:53 AM,71.1,66.0,84,30.08,10.0,NNW,5.8,-,N/A,,Mostly Cloudy,340,2013-01-24 18:53:00
9:19 AM,69.8,66.2,88,30.08,4.0,NNE,6.9,-,0.00,Rain,Light Rain,30,2013-01-24 19:19:00
9:53 AM,71.1,68.0,90,30.09,10.0,NNW,5.8,-,0.00,,Mostly Cloudy,330,2013-01-24 19:53:00
10:15 AM,71.6,68.0,88,30.09,2.0,North,3.5,-,0.00,Rain,Rain,10,2013-01-24 20:15:00
10:17 AM,71.6,68.0,88,30.09,6.0,Variable,3.5,-,0.01,Rain,Light Rain,0,2013-01-24 20:17:00
10:53 AM,73.0,68.0,84,30.09,10.0,NW,5.8,-,0.01,,Mostly Cloudy,320,2013-01-24 20:53:00
11:37 AM,71.6,68.0,88,30.08,2.5,Calm,Calm,-,0.01,Rain,Light Rain,0,2013-01-24 21:37:00
11:39 AM,71.6,68.0,88,30.08,2.5,Calm,Calm,-,0.01,Rain,Light Rain,0,2013-01-24 21:39:00
11:48 AM,71.6,69.8,94,30.08,2.5,Calm,Calm,-,0.03,Rain,Heavy Rain,0,2013-01-24 21:48:00
11:53 AM,71.1,69.1,93,30.08,2.5,South,3.5,-,0.03,Rain,Light Rain,170,2013-01-24 21:53:00
12:11 PM,71.6,68.0,88,30.07,3.0,SW,4.6,-,0.02,Rain,Light Rain,220,2013-01-24 22:11:00
12:22 PM,69.8,68.0,94,30.07,2.5,Calm,Calm,-,0.03,Rain,Light Rain,0,2013-01-24 22:22:00
12:26 PM,69.8,68.0,94,30.07,1.5,Calm,Calm,-,0.03,Rain,Light Rain,0,2013-01-24 22:26:00
12:33 PM,69.8,68.0,94,30.07,1.0,NNW,3.5,-,0.07,Rain,Heavy Rain,340,2013-01-24 22:33:00
12:53 PM,70.0,66.9,90,30.06,2.0,East,4.6,-,0.18,Rain,Rain,90,2013-01-24 22:53:00
1:00 PM,69.8,68.0,94,30.06,2.5,East,5.8,-,0.00,Rain,Light Rain,80,2013-01-24 23:00:00
1:20 PM,69.8,68.0,94,30.05,3.0,Calm,Calm,-,0.00,Rain,Light Rain,0,2013-01-24 23:20:00
1:37 PM,71.6,66.2,83,30.04,6.0,NE,6.9,-,0.00,Rain,Light Rain,40,2013-01-24 23:37:00
1:53 PM,73.0,66.9,81,30.03,10.0,NE,5.8,-,0.00,,Overcast,40,2013-01-24 23:53:00
2:53 PM,75.9,66.0,71,30.01,10.0,NNE,5.8,-,N/A,,Mostly Cloudy,30,2013-01-25 00:53:00
3:53 PM,77.0,63.0,62,30.01,10.0,Calm,Calm,-,N/A,,Mostly Cloudy,0,2013-01-25 01:53:00
4:53 PM,73.9,66.9,79,30.02,10.0,ESE,10.4,-,N/A,,Mostly Cloudy,120,2013-01-25 02:53:00
5:53 PM,73.9,64.9,73,30.02,10.0,ESE,8.1,-,N/A,,Scattered Clouds,110,2013-01-25 03:53:00
6:53 PM,73.0,64.9,76,30.04,10.0,ESE,5.8,-,N/A,,Partly Cloudy,110,2013-01-25 04:53:00
7:53 PM,72.0,64.9,78,30.05,10.0,North,3.5,-,N/A,,Partly Cloudy,10,2013-01-25 05:53:00
8:53 PM,70.0,64.0,81,30.06,10.0,North,3.5,-,N/A,,Partly Cloudy,350,2013-01-25 06:53:00
9:53 PM,69.1,64.0,84,30.07,10.0,NNW,5.8,-,N/A,,Partly Cloudy,340,2013-01-25 07:53:00
10:53 PM,70.0,64.0,81,30.08,10.0,North,4.6,-,N/A,,Mostly Cloudy,360,2013-01-25 08:53:00
11:09 PM,69.8,64.4,83,30.07,10.0,Calm,Calm,-,N/A,,Partly Cloudy,0,2013-01-25 09:09:00
11:53 PM,68.0,63.0,84,30.06,10.0,NNW,3.5,-,N/A,,Partly Cloudy,340,2013-01-25 09:53:00